Location: Boiro
(42.6475°N, 8.8834°W)
Time: 22:53:35
(UTC+01:00)

Tiros 1 - Pass Details

Date: 09 December 2021
Orbit: 629 x 664 km, 48.4° (Epoch: 18 January)

Event Time Altitude Azimuth Distance (km) Brightness Sun altitude
Rises 00:52:06 0° 291° (WNW) 2,951 - -68.8°
Reaches altitude 10° 00:54:38 10° 281° (W) 2,045 - -69.0°
Maximum altitude 00:58:43 30° 221° (SW) 1,172 - -69.3°
Drops below altitude 10° 01:02:50 10° 161° (SSE) 2,054 - -69.5°
Sets 01:05:24 0° 150° (SSE) 2,967 - -69.6°
